SCP
0 0 0 0 0 0 0 0 0 0 0 0 0 0 0 0 0 0 0 0 0 0 0 0 0 0 0 0 0 0 0 0 0 0 0 0 0 0 0 0 0 0 0 0
0 0 0 0 0 0 0 0 0 0 0 0 0 0 0 0 0 0 0 0 0 0 0 0 0 0 0 0 0 0 0 0 0 0 0 0 0 0 0 0 0 0 0 0
0 0 0 0 0 0 0 0 0 0 0 0 0 0 0 0 0 0 0 0 0 0 0 0 0 0 0 0 0 0 0 0 0 0 0 0 0 0 0 0 0 0 0 0
0 0 0 0 0 0 0 0 0 0 0 0 0 0 0 0 0 0 0 0 0 0 0 0 0 0 0 0 0 0 0 0 0 0 0 0 0 0 0 0 0 0 0 0
0 0 0 0 0 0 0 0 0 0 0 0 0 0 0 -0 0 0 0 0 0 0 0 0 0 0 0 0 0 0 0 0 0 0 0 0 0 0 0 0 0 0 0 0
0 0 0 0 0 0 0 0 0 0 0 0 0 0 0 -0 0 0 0 0 0 0 0 0 0 0 0 0 0 0 0 0 0 0 0 0 0 0 0 0 0 0 0 0
0 0 0 0 0 0 0 0 0 0 0 0 0 0 0 -0 0 0 0 0 0 0 0 0 0 0 0 0 0 0 0 0 0 0 0 0 0 0 0 0 0 0 0 0
0 0 0 0 0 0 0 0 0 0 0 0 0 0 0 0 0 0 0 0 0 0 0 0 0 0 0 0 0 0 0 0 0 0 0 0 0 0 0 0 0 0 0 0
0 0 0 0 0 0 0 0 0 0 0 0 0 0 0 0 0 0 0 0 0 0 0 0 0 0 0 0 0 0 0 0 0 0 0 0 0 0 0 0 0 0 0 0
0 0 0 0 0 0 0 0 0 0 0 0 0 0 0 0 0 0 0 0 0 0 0 0 0 0 0 0 0 0 0 0 0 0 0 0 0 0 0 0 0 0 0 0
0 0 0 0 0 0 0 0 0 0 0 0 0 0 0 0 0 0 0 0 0 0 0 0 0 0 0 0 0 0 0 0 0 0 0 0 0 0 0 0 0 0 0 0
0 0 0 0 0 0 0 0 0 0 0 0 0 0 0 0 0 0 0 0 0 0 0 0 0 0 0 0 0 0 0 0 0 0 0 0 0 0 0 0 0 0 0 0
0 0 0 0 0 0 0 0 0 0 0 0 0 0 0 0 0 0 0 0 0 0 0 0 0 0 0 0 0 0 0 0 0 0 0 0 0 0 0 0 0 0 0 0
0 0 0 0 0 0 0 0 0 0 0 0 0 0 0 0 0 0 0 0 0 0 0 0 0 0 0 0 0 0 0 0 0 0 0 0 0 0 0 0 0 0 0 0
0 0 0 0 0 0 0 0 0 0 0 0 0 0 0 0 0 0 0 0 0 0 0 0 0 0 0 0 0 0 0 0 0 0 0 0 0 0 0 0 0 0 0 0
0 0 0 0 0 0 0 0 0 0 0 0 0 0 0 0 0 0 0 0 0 0 0 0 0 0 0 0 0 0 0 0 0 0 0 0 0 0 0 0 0 0 0 0
0 0 0 0 0 0 0 0 0 0 0 0 0 0 0 0 0 0 0 0 0 0 0 0 0 0 0 0 0 0 0 0 0 0 0 0 0 0 0 0 0 0 0 0
0 0 0 0 0 0 0 0 0 0 0 0 0 0 0 0 0 0 0 0 0 0 0 0 0 0 0 0 0 0 0 0 0 0 0 0 0 0 0 0 0 0 0 0
0 0 0 0 0 0 0 0 0 0 0 0 0 0 0 0 0 0 0 0 0 0 0 0 0 0 0 0 0 0 0 0 0 0 0 0 0 0 0 0 0 0 0 0
0 0 0 0 0 0 0 0 0 0 0 0 0 0 0 0 0 0 0 0 0 0 0 0 0 0 0 0 0 0 0 0 0 0 0 0 0 0 0 0 0 0 0 0
0 0 0 0 0 0 0 0 0 0 0 0 0 0 0 0 0 0 0 0 0 0 0 0 0 0 0 0 0 0 0 0 0 0 0 0 0 0 0 0 0 0 0 0
0 0 0 0 0 0 0 0 0 0 0 0 0 0 0 0 0 0 0 0 0 0 0 0 0 0 0 0 0 0 0 0 0 0 0 0 0 0 0 0 0 0 0 0
0 0 0 0 0 0 0 0 0 0 0 0 0 0 0 0 0 0 0 0 0 0 0 0 0 0 0 0 0 0 0 0 0 0 0 0 0 0 0 0 0 0 0 0
0 0 0 0 0 0 0 0 0 0 0 0 0 0 0 0 0 0 0 0 0 0 0 0 0 0 0 0 0 0 0 0 0 0 0 0 0 0 0 0 0 0 0 0
0 0 0 0 0 0 0 0 0 0 0 0 0 0 0 0 0 0 0 0 0 0 0 0 0 0 0 0 0 0 0 0 0 0 0 0 0 0 0 0 0 0 0 0
0 0 0 0 0 0 0 0 0 0 0 0 0 0 0 0 0 0 0 0 0 0 0 0 0 0 0 0 0 0 0 0 0 0 0 0 0 0 0 0 0 0 0 0
Wind_Speed
12 11 18 22 22 12 12 15 15 12 6 9 15 19 19 15 12 13 13 12 13 15 14 13 15 15 15 15 16 16 16 15 13 10 9 8 8 8 8 8 10 11 10 10
11 21 22 18 18 13 13 15 15 7 4 7 11 19 19 18 17 17 17 16 15 13 12 13 15 16 17 18 17 17 17 16 15 12 10 7 8 8 9 8 10 12 11 11
23 16 17 16 17 18 16 17 14 7 4 4 7 17 21 20 18 17 17 17 16 15 15 15 16 18 18 19 19 16 18 18 18 16 10 7 7 5 7 9 9 11 12 12
20 11 19 21 22 19 16 12 10 8 7 6 6 12 16 16 19 20 19 18 18 17 16 15 16 18 20 20 18 19 19 19 18 17 14 15 12 12 12 10 10 11 13 13
17 17 23 24 23 19 8 9 8 6 7 6 8 11 13 10 17 19 20 21 21 19 18 18 18 19 19 19 18 18 19 19 19 19 18 18 16 13 10 10 12 12 11 12
8 10 17 15 15 15 12 10 7 3 3 12 17 14 16 12 16 15 16 19 20 20 20 19 17 16 16 16 16 17 19 20 20 20 20 20 19 17 14 14 12 10 8 9
9 9 7 10 17 15 15 12 6 7 9 12 8 14 17 10 12 15 16 17 18 18 19 18 18 17 17 17 18 18 20 21 21 21 21 21 21 19 19 16 14 12 9 9
18 16 16 14 16 17 20 18 12 11 10 7 6 15 13 7 10 12 14 14 13 14 15 16 17 17 17 17 18 19 21 21 21 21 21 20 20 15 14 16 13 13 10 10
20 15 13 9 8 16 17 16 6 2 2 4 10 11 12 8 11 14 15 15 16 15 13 14 13 14 14 15 17 19 20 20 20 21 20 19 19 18 16 15 15 12 10 9
12 12 13 8 7 7 12 12 7 8 8 10 10 12 11 5 12 15 16 17 15 12 11 12 11 11 11 12 12 14 17 18 18 18 18 14 18 18 16 13 14 12 12 11
10 12 12 12 15 18 14 14 11 10 7 8 9 10 6 10 10 11 12 12 11 10 9 8 7 7 8 8 9 12 14 15 15 16 16 16 16 15 14 13 14 13 11 12
8 9 10 10 3 12 14 16 15 13 10 9 8 10 3 5 6 7 8 7 6 6 6 6 6 6 7 8 9 10 11 12 13 13 14 14 13 13 13 13 13 12 12 12
11 12 12 6 4 8 13 17 20 13 7 8 9 13 3 4 5 6 7 7 6 5 5 5 5 6 7 8 8 8 9 10 9 10 11 11 12 13 13 12 11 12 12 12
9 8 12 18 14 16 17 19 21 17 11 15 20 22 12 9 8 7 6 6 6 5 5 6 6 6 7 7 8 8 8 8 8 9 10 11 11 11 10 10 11 11 12 12
9 8 8 7 10 18 18 21 23 24 22 19 23 27 27 20 15 12 8 7 7 8 7 7 7 7 7 8 8 8 8 7 7 8 9 9 8 8 8 9 9 9 10 11
10 10 8 5 10 16 14 22 25 27 28 27 25 28 25 17 13 15 15 12 12 12 10 8 8 8 9 9 9 9 8 8 8 8 8 6 6 7 8 8 8 9 9 9
14 10 10 8 8 7 12 24 27 26 28 27 29 32 18 13 15 17 16 14 14 14 12 10 10 10 10 10 10 10 9 8 8 7 6 6 6 7 7 8 9 9 10 10
17 11 6 8 9 14 15 15 20 25 27 27 24 21 18 17 14 13 15 16 16 14 13 12 10 9 8 8 9 8 8 8 8 7 7 7 7 7 7 8 9 8 8 10
15 13 7 8 12 13 10 11 20 21 24 25 27 26 20 8 6 14 14 14 16 15 12 10 8 7 6 8 9 9 8 8 9 9 9 8 8 8 9 9 9 8 8 8
12 13 9 9 12 17 12 10 11 11 18 16 20 23 18 11 13 17 9 9 11 11 8 6 4 4 5 6 8 9 9 9 10 9 8 8 8 9 10 9 8 7 7 8
15 10 14 11 11 11 5 8 17 16 13 7 14 18 16 17 18 10 1 1 2 3 3 2 3 4 4 6 8 9 9 9 6 5 6 7 7 7 8 8 7 8 8 9
18 14 15 11 12 12 8 13 16 9 3 5 7 9 11 13 10 5 2 1 2 2 2 1 1 2 2 5 7 7 7 4 5 6 7 7 6 6 6 8 8 9 10 11
14 14 9 12 11 3 11 10 6 3 5 4 4 4 6 6 4 3 1 1 2 3 3 2 2 3 3 3 4 4 3 5 6 6 6 6 6 6 7 9 10 9 9 8
4 3 6 5 5 4 5 2 1 2 3 2 2 3 4 4 3 3 3 3 3 4 4 3 3 3 3 2 2 2 4 5 6 6 6 6 7 7 7 6 7 8 9 9
5 7 6 5 3 3 2 4 3 4 5 5 5 4 4 6 5 4 4 4 4 4 4 4 3 3 3 3 3 3 3 5 5 5 5 6 6 6 6 6 6 7 6 8
1 4 7 7 7 7 6 3 4 6 5 5 6 6 6 6 6 6 6 5 5 5 5 5 5 5 4 3 4 3 2 3 5 5 5 5 5 5 5 5 4 5 5 6
Wind_Direction
173 186 201 199 205 224 207 206 214 220 197 210 234 246 250 247 240 246 243 235 228 227 223 211 209 207 206 205 203 201 197 196 191 190 193 197 205 205 207 208 207 205 203 199
174 210 207 200 201 208 208 212 217 212 191 223 248 253 254 250 248 247 246 240 235 232 217 208 207 206 208 208 206 206 204 199 196 195 194 196 198 208 209 205 208 208 205 202
196 204 189 187 191 199 212 216 211 198 158 216 268 262 251 246 242 244 244 243 241 232 225 212 206 207 208 211 209 207 206 204 201 200 197 193 197 198 202 208 208 208 207 205
204 183 182 190 197 196 210 208 199 185 196 222 221 266 253 244 240 237 236 235 235 231 228 222 210 208 209 212 210 210 209 207 204 202 202 200 203 208 209 206 206 206 206 207
197 184 184 196 199 194 189 160 170 188 213 241 220 253 260 235 242 238 234 233 233 231 227 223 216 212 211 209 209 210 210 210 207 204 206 207 215 218 214 209 208 206 204 207
170 183 194 196 186 175 132 113 90 93 191 244 230 233 261 229 236 239 236 233 233 231 228 227 222 215 214 209 208 209 210 212 209 207 209 211 214 215 212 208 206 204 201 202
160 175 173 163 159 168 163 152 165 188 208 237 207 224 252 240 230 234 239 237 234 231 229 225 221 215 213 208 207 207 209 212 210 209 211 213 215 215 215 211 209 202 199 200
180 185 182 176 178 179 189 187 193 199 210 211 185 233 252 238 241 246 252 255 254 244 235 230 225 218 215 210 207 207 210 213 210 210 212 213 214 214 216 213 208 205 202 201
185 185 168 177 176 172 182 203 205 153 87 229 220 246 272 243 247 244 244 246 248 244 238 236 233 226 221 215 210 209 211 213 212 211 211 212 212 213 213 209 208 207 202 194
176 165 165 158 137 176 185 166 161 185 189 228 241 241 245 217 226 233 237 241 247 249 244 237 232 227 225 222 217 214 216 216 214 213 212 211 211 212 211 206 203 200 195 189
148 142 155 170 185 175 166 178 187 195 222 223 240 247 224 227 227 237 245 249 256 258 255 249 242 233 226 221 217 215 216 217 215 213 212 210 211 209 207 205 201 195 188 185
138 132 157 180 204 199 189 189 184 190 201 223 247 258 160 228 255 259 269 276 274 274 269 259 247 232 221 217 215 216 216 216 216 212 210 209 207 203 202 202 196 188 184 182
145 137 137 153 184 191 202 199 200 206 191 200 223 248 146 215 242 250 263 278 278 273 269 257 241 233 227 221 216 215 214 214 213 209 208 205 203 201 200 195 186 181 179 174
142 158 183 191 189 180 195 200 201 201 211 225 233 249 245 247 250 251 254 264 278 273 265 265 255 243 234 228 221 216 214 207 202 204 206 205 203 201 195 184 179 177 173 172
158 172 190 192 164 173 192 197 199 208 217 225 237 244 249 247 254 264 267 269 275 279 272 259 252 243 233 225 220 215 211 202 196 199 205 205 195 189 180 175 172 167 168 170
177 177 168 159 174 180 194 202 203 211 219 229 243 250 252 256 251 256 262 265 271 276 274 264 250 240 233 224 216 209 206 197 193 198 201 191 180 174 171 167 160 157 158 156
178 160 163 176 162 163 214 205 204 213 220 224 235 246 249 244 241 247 254 257 260 266 268 262 251 241 230 220 210 207 198 187 191 193 183 174 172 172 167 159 157 162 162 158
175 160 150 148 155 212 228 204 204 214 222 222 231 244 244 246 248 246 249 253 258 259 259 258 252 246 231 209 202 196 183 183 187 188 183 178 177 171 160 160 164 164 160 162
180 164 150 170 199 234 238 198 199 208 229 226 233 242 247 245 265 261 248 243 251 256 257 259 251 240 214 196 186 178 180 183 189 192 191 184 177 169 166 170 167 161 158 158
184 180 166 176 201 224 231 185 176 191 243 226 225 238 240 220 246 257 249 230 244 253 255 252 236 214 202 188 171 174 184 191 200 196 188 179 176 174 174 171 161 156 155 154
179 183 191 191 214 240 216 150 151 187 231 199 210 227 225 221 233 255 277 213 260 270 269 243 207 202 198 168 166 181 190 202 193 169 165 170 176 175 169 158 154 152 148 146
179 186 196 194 214 226 161 157 181 205 162 175 195 213 215 224 236 248 276 324 355 353 9 27 167 151 133 150 169 186 198 177 146 152 161 168 169 165 158 155 154 155 154 153
190 190 182 199 214 136 165 185 197 156 172 182 186 195 197 203 215 216 224 34 33 24 25 33 78 95 91 129 165 181 165 142 145 152 160 161 161 161 162 163 161 160 163 163
205 145 154 187 212 177 178 178 151 151 154 133 130 134 148 156 147 132 104 67 52 40 34 39 80 91 78 80 90 104 124 140 148 158 160 160 165 167 167 169 171 173 176 174
169 167 171 190 174 140 207 206 177 134 114 105 88 79 103 121 113 105 91 66 54 47 36 42 60 74 72 73 74 84 122 141 149 154 158 164 171 171 173 177 186 189 193 193
141 180 188 196 182 179 185 184 153 135 125 120 111 85 64 77 95 93 82 67 61 54 46 49 50 56 56 64 66 66 104 141 150 157 166 171 172 172 174 171 171 196 196 202